When you browse on this site, cookies collect data to enhance your experience and personalize the content and advertising you see.
Visit our Privacy Policy to learn more. By continuing to use the site, you agree to this use of cookies and data.
  • In Latvia
  • List of Countries
  • For 7 days
  • Water Temperature
  • Satellite Maps
  • Weather Map
  • Weather Widgets
  • user-avatar
    Login

    Hourly Weather Rozwienica

    Today, 27 May, Monday

    Time Temperature Precipitation Wind Pressure Humidity
    00:00 +15°C° 0 mm 2 mps 740 mmHg 91%
    01:00 +15°C° 0 mm 2 mps 740 mmHg 91%
    02:00 +14°C° 0 mm 2 mps 740 mmHg 92%
    03:00 +14°C° 0 mm 2 mps 739 mmHg 92%
    04:00 +14°C° 0 mm 2 mps 739 mmHg 92%
    05:00 +14°C° 0 mm 2 mps 739 mmHg 93%
    06:00 +16°C° 0 mm 3 mps 739 mmHg 89%
    07:00 +17°C° 0 mm 3 mps 739 mmHg 86%
    08:00 +19°C° 0 mm 4 mps 739 mmHg 82%
    09:00 +20°C° 0.1 mm 4 mps 739 mmHg 76%
    10:00 +22°C° 0.1 mm 4 mps 739 mmHg 70%
    11:00 +23°C° 0.1 mm 4 mps 739 mmHg 64%
    12:00 +25°C° 0.1 mm 4 mps 739 mmHg 62%
    13:00 +25°C° 0.1 mm 4 mps 739 mmHg 60%
    14:00 +26°C° 0.1 mm 4 mps 739 mmHg 58%
    15:00 +25°C° 0 mm 4 mps 738 mmHg 62%
    16:00 +23°C° 0 mm 4 mps 738 mmHg 67%
    17:00 +22°C° 0 mm 4 mps 738 mmHg 71%
    18:00 +21°C° 0 mm 3 mps 737 mmHg 74%
    19:00 +20°C° 0 mm 3 mps 737 mmHg 77%
    20:00 +20°C° 0 mm 2 mps 737 mmHg 80%
    21:00 +19°C° 0 mm 2 mps 737 mmHg 81%
    22:00 +18°C° 0 mm 2 mps 737 mmHg 83%
    23:00 +18°C° 0 mm 3 mps 736 mmHg 85%

    Tomorrow, 28 May, Tuesday

    Time Temperature Precipitation Wind Pressure Humidity
    00:00 +18°C° 0.8 mm 3 mps 736 mmHg 88%
    01:00 +17°C° 0.8 mm 3 mps 736 mmHg 90%
    02:00 +17°C° 0.8 mm 3 mps 736 mmHg 93%
    03:00 +17°C° 0.9 mm 3 mps 735 mmHg 94%
    04:00 +17°C° 0.9 mm 3 mps 735 mmHg 95%
    05:00 +17°C° 0.9 mm 2 mps 735 mmHg 95%
    06:00 +18°C° 0 mm 3 mps 735 mmHg 93%
    07:00 +19°C° 0 mm 3 mps 735 mmHg 90%
    08:00 +20°C° 0 mm 4 mps 735 mmHg 87%
    09:00 +21°C° 0 mm 4 mps 735 mmHg 80%
    10:00 +22°C° 0 mm 4 mps 735 mmHg 74%
    11:00 +25°C° 0 mm 4 mps 735 mmHg 68%
    12:00 +25°C° 1.1 mm 4 mps 734 mmHg 69%
    13:00 +24°C° 1.1 mm 3 mps 734 mmHg 71%
    14:00 +24°C° 1.1 mm 3 mps 734 mmHg 73%
    15:00 +24°C° 1.5 mm 3 mps 733 mmHg 76%
    16:00 +22°C° 1.5 mm 3 mps 733 mmHg 80%
    17:00 +22°C° 1.5 mm 3 mps 733 mmHg 84%
    18:00 +21°C° 0.9 mm 3 mps 733 mmHg 85%
    19:00 +20°C° 0.9 mm 3 mps 732 mmHg 87%
    20:00 +19°C° 0.9 mm 3 mps 732 mmHg 88%
    21:00 +18°C° 0.1 mm 3 mps 732 mmHg 89%
    22:00 +18°C° 0.1 mm 3 mps 733 mmHg 90%
    23:00 +17°C° 0.1 mm 3 mps 733 mmHg 91%

    Day after tomorrow, 29 May, Wednesday

    Time Temperature Precipitation Wind Pressure Humidity
    00:00 +16°C° 0 mm 3 mps 733 mmHg 92%
    01:00 +16°C° 0 mm 3 mps 733 mmHg 92%
    02:00 +14°C° 0 mm 3 mps 733 mmHg 93%
    03:00 +14°C° 0 mm 3 mps 734 mmHg 94%
    04:00 +13°C° 0 mm 3 mps 734 mmHg 94%
    05:00 +13°C° 0 mm 3 mps 734 mmHg 95%
    06:00 +14°C° 0 mm 3 mps 735 mmHg 94%
    07:00 +16°C° 0 mm 3 mps 736 mmHg 92%
    08:00 +17°C° 0 mm 4 mps 736 mmHg 90%
    09:00 +17°C° 0 mm 4 mps 737 mmHg 90%
    10:00 +17°C° 0 mm 4 mps 737 mmHg 89%
    11:00 +17°C° 0 mm 4 mps 738 mmHg 88%
    12:00 +17°C° 0.1 mm 4 mps 738 mmHg 87%
    13:00 +17°C° 0.1 mm 4 mps 739 mmHg 87%
    14:00 +15°C° 0.1 mm 4 mps 739 mmHg 86%
    15:00 +15°C° 0 mm 4 mps 739 mmHg 86%
    16:00 +15°C° 0 mm 4 mps 740 mmHg 86%
    17:00 +16°C° 0 mm 3 mps 740 mmHg 86%
    18:00 +14°C° 0 mm 3 mps 740 mmHg 87%
    19:00 +14°C° 0 mm 3 mps 740 mmHg 88%
    20:00 +14°C° 0 mm 2 mps 741 mmHg 89%
    21:00 +14°C° 0 mm 2 mps 741 mmHg 89%
    22:00 +14°C° 0 mm 2 mps 741 mmHg 89%
    23:00 +14°C° 0 mm 2 mps 742 mmHg 89%

    30 May, Thursday

    Time Temperature Precipitation Wind Pressure Humidity
    00:00 +13°C° 0 mm 2 mps 742 mmHg 91%
    01:00 +12°C° 0 mm 1 mps 742 mmHg 93%
    02:00 +12°C° 0 mm 1 mps 741 mmHg 95%
    03:00 +12°C° 0 mm 1 mps 742 mmHg 94%
    04:00 +12°C° 0 mm 2 mps 742 mmHg 94%
    05:00 +12°C° 0 mm 2 mps 742 mmHg 94%
    06:00 +13°C° 0 mm 2 mps 742 mmHg 91%
    07:00 +14°C° 0 mm 2 mps 742 mmHg 89%
    08:00 +14°C° 0 mm 2 mps 743 mmHg 87%
    09:00 +15°C° 0 mm 2 mps 743 mmHg 86%
    10:00 +15°C° 0 mm 2 mps 743 mmHg 84%
    11:00 +16°C° 0 mm 2 mps 743 mmHg 82%
    12:00 +16°C° 0 mm 2 mps 743 mmHg 82%
    13:00 +17°C° 0 mm 2 mps 743 mmHg 82%
    14:00 +18°C° 0 mm 1 mps 743 mmHg 81%
    15:00 +18°C° 0 mm 1 mps 743 mmHg 81%
    16:00 +18°C° 0 mm 2 mps 743 mmHg 81%
    17:00 +18°C° 0 mm 2 mps 743 mmHg 80%
    18:00 +17°C° 0.1 mm 2 mps 743 mmHg 83%
    19:00 +18°C° 0.1 mm 1 mps 743 mmHg 86%
    20:00 +16°C° 0.1 mm 1 mps 743 mmHg 89%
    21:00 +15°C° 0 mm 1 mps 743 mmHg 90%
    22:00 +15°C° 0 mm 1 mps 743 mmHg 92%
    23:00 +14°C° 0 mm 1 mps 743 mmHg 93%

    31 May, Friday

    Time Temperature Precipitation Wind Pressure Humidity
    00:00 +13°C° 0 mm 1 mps 743 mmHg 93%
    01:00 +13°C° 0 mm 1 mps 743 mmHg 94%
    02:00 +13°C° 0 mm 1 mps 743 mmHg 94%
    03:00 +13°C° 0 mm 1 mps 742 mmHg 93%
    04:00 +13°C° 0 mm 1 mps 742 mmHg 92%
    05:00 +13°C° 0 mm 2 mps 742 mmHg 91%
    06:00 +14°C° 0 mm 2 mps 742 mmHg 90%
    07:00 +14°C° 0 mm 2 mps 742 mmHg 89%
    08:00 +15°C° 0 mm 2 mps 742 mmHg 88%
    09:00 +16°C° 0 mm 2 mps 742 mmHg 86%
    10:00 +17°C° 0 mm 2 mps 741 mmHg 84%
    11:00 +17°C° 0 mm 2 mps 741 mmHg 83%
    12:00 +18°C° 0.1 mm 2 mps 741 mmHg 83%
    13:00 +18°C° 0.1 mm 2 mps 741 mmHg 83%
    14:00 +18°C° 0.1 mm 2 mps 741 mmHg 84%
    15:00 +19°C° 0 mm 2 mps 740 mmHg 83%
    16:00 +19°C° 0 mm 3 mps 740 mmHg 83%
    17:00 +19°C° 0 mm 3 mps 740 mmHg 82%
    18:00 +19°C° 0 mm 3 mps 740 mmHg 85%
    19:00 +18°C° 0 mm 2 mps 740 mmHg 87%
    20:00 +17°C° 0 mm 2 mps 740 mmHg 90%
    21:00 +17°C° 0.1 mm 2 mps 740 mmHg 92%
    22:00 +16°C° 0.1 mm 2 mps 740 mmHg 94%
    23:00 +15°C° 0.1 mm 2 mps 740 mmHg 96%

    1 June, Saturday

    Time Temperature Precipitation Wind Pressure Humidity
    00:00 +14°C° 0.5 mm 3 mps 739 mmHg 96%
    01:00 +14°C° 0.5 mm 3 mps 739 mmHg 96%
    02:00 +14°C° 0.5 mm 3 mps 739 mmHg 97%
    03:00 +14°C° 1.2 mm 3 mps 739 mmHg 96%
    04:00 +14°C° 1.2 mm 4 mps 739 mmHg 96%
    05:00 +14°C° 1.2 mm 4 mps 739 mmHg 96%
    06:00 +14°C° 6 mm 5 mps 739 mmHg 96%
    07:00 +14°C° 6 mm 5 mps 740 mmHg 96%
    08:00 +14°C° 6 mm 6 mps 740 mmHg 96%
    09:00 +14°C° 7.6 mm 6 mps 740 mmHg 96%
    10:00 +14°C° 7.6 mm 6 mps 740 mmHg 96%
    11:00 +13°C° 7.6 mm 6 mps 741 mmHg 95%
    12:00 +13°C° 2.6 mm 6 mps 741 mmHg 95%
    13:00 +13°C° 2.6 mm 6 mps 741 mmHg 95%
    14:00 +13°C° 2.6 mm 6 mps 741 mmHg 95%
    15:00 +12°C° 0.5 mm 7 mps 741 mmHg 95%
    16:00 +12°C° 0.5 mm 7 mps 742 mmHg 95%
    17:00 +12°C° 0.5 mm 8 mps 742 mmHg 94%
    18:00 +12°C° 0.7 mm 7 mps 742 mmHg 95%
    19:00 +11°C° 0.7 mm 6 mps 742 mmHg 95%
    20:00 +11°C° 0.7 mm 6 mps 742 mmHg 96%
    21:00 +13°C° 1.3 mm 6 mps 742 mmHg 96%
    22:00 +13°C° 1.3 mm 5 mps 742 mmHg 96%
    23:00 +13°C° 1.3 mm 5 mps 742 mmHg 96%
    Show more